Погода в Тихорецке

Погода в Тихорецке : погода сейчас, прогноз погоды и архив. Всё, что Вы хотите узнать о погоде в Тихорецке!

Хотите узнать прогноз погоды в Тихорецке? Тогда Вам сюда: Погода в Тихорецке

Поиск расширенной информации на нашем сайте:

Другие новости

Новости СМИ2

Главная страница сайта

Новости сайта

03.07.2017

Напоминаем, что на нашем специализированном сайте Метеоцентр.Азия вы можете получить высокодетализированные автоматические прогнозы погоды по пунктам России, СНГ и мира в авиационном формате (включающие направление и скорость ветра, видимость, явления погоды, количество и форму облачности, нижнюю и верхнюю границу облачности).


Погода в Тихорецке - сегодня

Время (UTC), дата Ветер
(°,м/с) 
Видим.   Явления Облачность Т
(°С)
Тd
(°С)
f(%) Тe
(°С)
Pmin
(гПа)
dP
(гПа)
Po
(мм)
O2
(г/м3)
Тmin Tmax R s Состояние
почвы
18 20.02.18 090 (В) 10 км    ясно 
+1.9 -0.7 83 1026.4  0.7  762  305           
21 20.02.18 040 (СВ) 10 км    ясно 
-2.3 -3.6 91 -4  1023  -0.4  760  309           
00 21.02.18 050 (СВ) 10 км    ясно 
-2.9 -4.2 91 -4  1022.9  0.1  760  310           
03 21.02.18 050 (СВ) 10 км    ясно 
-3.4 -5.3 87 -6  1022.5  -0.4  759  310  -3.4         
06 21.02.18 060 (СВ) 10 км    10/0 верхняя 
[Cc]
-2.1 -4.5 84 -4  1022.6  0.1  759  309  -3.4         
09 21.02.18 060 (СВ) 10 км    10/0 
[]
-0.1 -3.2 80 -2  1022.2  -0.3  759  306           
12 21.02.18 050 (СВ) 10 км    10/0 средняя 
[Ac As]
+0.8 -2.4 79 -1  1021  -1.1  758  305           
15 21.02.18 040 (СВ) 10 км    10/0 средняя 
[As op]
+0.5 -2 83 -2  1020.8  -0.3  758  305    +0.9       
18 21.02.18 050 (СВ) 10 км    10/0 средняя 
[As op]
-0.2 -2 88 -3  1020.6  -0.2  758  306           
21 21.02.18 050 (СВ) 10 км    10/0 средняя 
[As op]
-0 -1.6 89 -2  1019.7  -0.9  757  305           
00 22.02.18 040 (СВ) 10 км    10/0 средняя 
[As op]
-0.2 -1.4 92 -3  1018.6  -1.1  757  305           
03 22.02.18 040 (СВ) 10 км    10/0 средняя 
[As op]
-0.1 -1.2 92 -3  1017.9  -0.8  756  305  -0.3         
06 22.02.18 040 (СВ) 10 км    10/0 средняя 
[As op]
+0.6 -0.5 92 -2  1017.6  -0.2  756  304           
09 22.02.18 050 (СВ) 5{10}  10 км    10/0 средняя 
[As op]
+2.1 +0.1 87 -1  1017  -0.6  755  302           
12 22.02.18 040 (СВ) 10 км    10/0 средняя 
[Ac As]
+2.7 +0.3 84 +1  1016.9  0.1  755  301           
15 22.02.18 040 (СВ) 10 км    10/0 средняя 
[Ac As]
+1.7 -0.1 88 1017  0.1  755  302    +2.9       
18 22.02.18 040 (СВ) 10 км    10/0 средняя 
[As op]
+0.8 -0.9 88 -2  1017.5  0.5  756  304           
21 22.02.18 040 (СВ) 10 км    10/0 средняя 
[As op]
+0.1 -1.4 90 -2  1017.2  -0.4  756  304           
00 23.02.18 050 (СВ) 10 км    10/0 средняя 
[As op]
-0.2 -1.4 92 -2  1017.2  755  305           
06 23.02.18 050 (СВ) 10 км    10/10 600 м 
[St]
-0.8 -1.7 94 -3  1016.5  755  305  -1         
09 23.02.18 050 (СВ) 10 км    10/0 средняя 
[As op]
+0.2 -1.3 90 -2  1015.8  -0.7  754  304           
12 23.02.18 040 (СВ) 10 км    10/0 средняя 
[As op]
+0.7 -0.9 89 -1  1014.9  -0.8  754  303           
15 23.02.18 020 (С) 10 км    10/0 средняя 
[As op]
-0.4 -1.7 91 -3  1014.3  -0.7  753  304    +0.7       
18 23.02.18 020 (С) 4000 м  слаб. снег  10/10 300 м 
[Ns]
-2.7 -4.1 90 -6  1015.3  0.9  754  307           
21 23.02.18 030 (СВ) 5{10}  10 км  слаб. снег  10/10 300 м 
[Ns]
-4.1 -6.1 86 -8  1015.4  754  309           
Время (UTC), дата Ветер
(°,м/с) 
Видим.   Явления Облачность Т
(°С)
Тd
(°С)
f(%) Тe
(°С)
Pmin
(гПа)
dP
(гПа)
Po
(мм)
O2
(г/м3)
Тmin Tmax R s Состояние
почвы

Для получения пояснительной информации подведите курсор к названию столбца.

ПОГОДА в Тихорецке - архив

Всё, что Вы хотите узнать о погоде в Тихорецке - удобно и подробно!

Выберите нужную дату (начиная с 1 января 2015* года) и нажмите кнопку "Найти".
Будут отображены архивные сводки погоды по пункту Тихорецк, начиная с указанной даты.


Отображать данные в формате CSV (для использования в таблицах Excel)


Внимание! Наш архив погоды предназначен исключительно для личного некоммерческого использования в познавательных целях. Если Вам необходимы официальные справки о состоянии погоды (для производственных, юридических, коммерческих и т.п. целей), обращайтесь в органы Росгидромета.

*Примечание: данная дата относится к архиву по метеостанциям СССР (Россия, СНГ, Балтия).
Архив по метеостанциям Зарубежной Европы и Азии (кроме Китая) хранится 10 дней, по другим регионам земного шара (Китай, Африка, Америка, Австралия, Океания) - 1 день.

Тихорецк - район местоположения метеостанции


Название, широта, долгота, высота метеостанции:
Тихорецк 45.9°ш. 40.1°д. 78 м над ур. моря [Российская Федерация]

Дополнительная информация

В oтличие oт бoльшинства пoгoдных сайтoв мы публикуем пoдрoбную метеoинфoрмацию в детальнoм прoфессиoнальнoм фoрмате.

Характеристики температуры и влажнoсти вoздуха измеряются на высoте 2 м в тени вдали oт зданий и деревьев.
Скoрoсть ветра измеряется на высoте 10 м (на урoвне рoста челoвека скoрoсть ветра ниже в 1.5-2 раза). Если метеoстанция нахoдится в гoрoде или в лесу, тo скoрoсть ветра занижена на 2-4 м/с пo сравнению с oткрытым местoм. Скoрoсть ветра над акватoриями крупных рек и oзёр, а также на вершинах хoлмoв на 2-5 м/с выше, чем в oбычных услoвиях.
Атмoсфернoе давление в разных тoчках местнoсти мoжет значительнo oтличаться oт давления на метеoстанции, в зависимoсти oт услoвий рельефа (при пoдъёме на 10 м давление пoнижается примернo на 1 мм рт.ст.).